Time,TemperatureF,DewpointF,PressureIn,WindDirection,WindDirectionDegrees,WindSpeedMPH,WindSpeedGustMPH,Humidity,HourlyPrecipIn,Conditions,Clouds,dailyrainin,SoftwareType,DateUTC
2013-06-03 00:02:00,53.0,50.0,30.02,ENE,69,3.0,7.0,90,0.00,,,0.01,,2013-06-03 05:02:00,
2013-06-03 00:12:00,53.0,50.0,30.02,ENE,69,3.0,7.0,90,0.00,,,0.01,,2013-06-03 05:12:00,
2013-06-03 00:22:00,53.0,50.0,30.03,ENE,74,3.0,7.0,89,0.00,,,0.01,,2013-06-03 05:22:00,
2013-06-03 00:32:00,52.0,49.0,30.03,East,79,3.0,5.0,89,0.00,,,0.01,,2013-06-03 05:32:00,
2013-06-03 00:42:00,52.0,49.0,30.03,East,79,3.0,5.0,89,0.00,,,0.01,,2013-06-03 05:42:00,
2013-06-03 00:52:00,52.0,49.0,30.03,ENE,72,3.0,8.0,88,0.00,,,0.01,,2013-06-03 05:52:00,
2013-06-03 01:02:00,52.0,49.0,30.03,ENE,59,2.0,5.0,89,0.00,,,0.01,,2013-06-03 06:02:00,
2013-06-03 01:12:00,52.0,49.0,30.03,ENE,59,2.0,5.0,89,0.00,,,0.01,,2013-06-03 06:12:00,
2013-06-03 01:22:00,52.0,49.0,30.03,ENE,71,2.0,5.0,89,0.00,,,0.01,,2013-06-03 06:22:00,
2013-06-03 01:32:00,52.0,49.0,30.03,East,79,2.0,4.0,89,0.00,,,0.01,,2013-06-03 06:32:00,
2013-06-03 01:42:00,52.0,49.0,30.03,East,79,2.0,4.0,89,0.00,,,0.01,,2013-06-03 06:42:00,
2013-06-03 01:52:00,52.0,49.0,30.03,East,84,3.0,6.0,88,0.00,,,0.01,,2013-06-03 06:52:00,
2013-06-03 02:02:00,51.0,48.0,30.03,East,80,2.0,4.0,89,0.00,,,0.01,,2013-06-03 07:02:00,
2013-06-03 02:12:00,51.0,48.0,30.03,East,80,2.0,4.0,89,0.00,,,0.01,,2013-06-03 07:12:00,
2013-06-03 02:22:00,51.0,48.0,30.03,ENE,70,2.0,5.0,90,0.00,,,0.01,,2013-06-03 07:22:00,
2013-06-03 02:32:00,50.0,47.0,30.03,NE,56,2.0,5.0,90,0.00,,,0.01,,2013-06-03 07:32:00,
2013-06-03 02:42:00,50.0,47.0,30.03,NE,56,2.0,5.0,90,0.00,,,0.01,,2013-06-03 07:42:00,
2013-06-03 02:52:00,50.0,47.0,30.02,ENE,65,0.0,3.0,90,0.00,,,0.01,,2013-06-03 07:52:00,
2013-06-03 03:02:00,50.0,47.0,30.02,ENE,75,2.0,3.0,91,0.00,,,0.01,,2013-06-03 08:02:00,
2013-06-03 03:12:00,50.0,47.0,30.02,ENE,75,2.0,3.0,91,0.00,,,0.01,,2013-06-03 08:12:00,
2013-06-03 03:22:00,50.0,47.0,30.02,ENE,75,1.0,3.0,91,0.00,,,0.01,,2013-06-03 08:22:00,
2013-06-03 03:32:00,50.0,47.0,30.02,ENE,76,0.0,3.0,91,0.00,,,0.01,,2013-06-03 08:32:00,
2013-06-03 03:42:00,50.0,47.0,30.02,ENE,76,0.0,3.0,91,0.00,,,0.01,,2013-06-03 08:42:00,
2013-06-03 03:52:00,49.0,46.0,30.02,ENE,76,0.0,0.0,91,0.00,,,0.01,,2013-06-03 08:52:00,
2013-06-03 04:02:00,49.0,46.0,30.02,ENE,76,0.0,1.0,91,0.00,,,0.01,,2013-06-03 09:02:00,
2013-06-03 04:12:00,49.0,46.0,30.02,ENE,76,0.0,1.0,91,0.00,,,0.01,,2013-06-03 09:12:00,
2013-06-03 04:22:00,49.0,46.0,30.02,ENE,76,0.0,0.0,91,0.00,,,0.01,,2013-06-03 09:22:00,
2013-06-03 04:33:00,50.0,47.0,30.02,ENE,76,0.0,2.0,91,0.00,,,0.01,,2013-06-03 09:33:00,
2013-06-03 04:42:00,50.0,47.0,30.02,ENE,76,0.0,2.0,91,0.00,,,0.01,,2013-06-03 09:42:00,
2013-06-03 04:52:00,50.0,47.0,30.02,NE,43,2.0,4.0,91,0.00,,,0.01,,2013-06-03 09:52:00,
2013-06-03 05:03:00,50.0,47.0,30.03,ENE,73,0.0,1.0,89,0.00,,,0.01,,2013-06-03 10:03:00,
2013-06-03 05:12:00,50.0,47.0,30.03,ENE,73,0.0,1.0,89,0.00,,,0.01,,2013-06-03 10:12:00,
2013-06-03 05:22:00,50.0,47.0,30.02,ENE,70,1.0,4.0,89,0.00,,,0.01,,2013-06-03 10:22:00,
2013-06-03 05:33:00,49.0,46.0,30.03,ENE,70,0.0,0.0,89,0.00,,,0.01,,2013-06-03 10:33:00,
2013-06-03 05:42:00,49.0,46.0,30.03,ENE,70,0.0,0.0,89,0.00,,,0.01,,2013-06-03 10:42:00,
2013-06-03 05:52:00,49.0,46.0,30.03,ENE,70,0.0,0.0,89,0.00,,,0.01,,2013-06-03 10:52:00,
2013-06-03 06:02:00,48.0,45.0,30.04,ENE,70,0.0,0.0,90,0.00,,,0.01,,2013-06-03 11:02:00,
2013-06-03 06:12:00,48.0,45.0,30.04,ENE,70,0.0,0.0,90,0.00,,,0.01,,2013-06-03 11:12:00,
2013-06-03 06:22:00,48.0,45.0,30.04,ENE,70,0.0,0.0,90,0.00,,,0.01,,2013-06-03 11:22:00,
2013-06-03 06:32:00,48.0,45.0,30.05,ENE,70,0.0,0.0,91,0.00,,,0.01,,2013-06-03 11:32:00,
2013-06-03 06:42:00,48.0,45.0,30.05,ENE,70,0.0,0.0,91,0.00,,,0.01,,2013-06-03 11:42:00,
2013-06-03 06:52:00,49.0,46.0,30.05,ENE,70,0.0,0.0,91,0.00,,,0.01,,2013-06-03 11:52:00,
2013-06-03 07:02:00,50.0,47.0,30.05,ENE,70,0.0,0.0,90,0.00,,,0.01,,2013-06-03 12:02:00,
2013-06-03 07:12:00,50.0,47.0,30.05,ENE,70,0.0,0.0,90,0.00,,,0.01,,2013-06-03 12:12:00,
2013-06-03 07:22:00,52.0,48.0,30.06,ENE,70,0.0,2.0,85,0.00,,,0.01,,2013-06-03 12:22:00,
2013-06-03 07:32:00,53.0,48.0,30.06,ENE,68,0.0,3.0,82,0.00,,,0.01,,2013-06-03 12:32:00,
2013-06-03 07:42:00,53.0,48.0,30.06,ENE,68,0.0,3.0,82,0.00,,,0.01,,2013-06-03 12:42:00,
2013-06-03 07:52:00,54.0,48.0,30.07,NE,35,2.0,4.0,80,0.00,,,0.01,,2013-06-03 12:52:00,
2013-06-03 08:02:00,54.0,48.0,30.07,NE,47,2.0,4.0,79,0.00,,,0.01,,2013-06-03 13:02:00,
2013-06-03 08:12:00,54.0,48.0,30.07,NE,47,2.0,4.0,79,0.00,,,0.01,,2013-06-03 13:12:00,
2013-06-03 08:22:00,55.0,47.0,30.09,ENE,76,0.0,3.0,75,0.00,,,0.01,,2013-06-03 13:22:00,
2013-06-03 08:32:00,56.0,46.0,30.10,East,94,0.0,3.0,70,0.00,,,0.01,,2013-06-03 13:32:00,
2013-06-03 08:42:00,56.0,46.0,30.10,East,94,0.0,3.0,70,0.00,,,0.01,,2013-06-03 13:42:00,
2013-06-03 08:52:00,57.0,46.0,30.11,ENE,57,0.0,4.0,66,0.00,,,0.01,,2013-06-03 13:52:00,
2013-06-03 09:02:00,57.0,45.0,30.11,SE,130,1.0,5.0,65,0.00,,,0.01,,2013-06-03 14:02:00,
2013-06-03 09:12:00,57.0,45.0,30.11,SE,130,1.0,5.0,65,0.00,,,0.01,,2013-06-03 14:12:00,
2013-06-03 09:22:00,57.0,45.0,30.11,SE,134,0.0,4.0,64,0.00,,,0.01,,2013-06-03 14:22:00,
2013-06-03 09:32:00,58.0,47.0,30.11,NE,49,3.0,5.0,68,0.00,,,0.01,,2013-06-03 14:32:00,
2013-06-03 09:42:00,58.0,47.0,30.11,NE,49,3.0,5.0,68,0.00,,,0.01,,2013-06-03 14:42:00,
2013-06-03 09:52:00,58.0,48.0,30.11,SE,140,3.0,9.0,70,0.00,,,0.01,,2013-06-03 14:52:00,
2013-06-03 10:02:00,58.0,47.0,30.11,NE,38,3.0,8.0,66,0.00,,,0.01,,2013-06-03 15:02:00,
2013-06-03 10:12:00,58.0,47.0,30.11,NE,38,3.0,8.0,66,0.00,,,0.01,,2013-06-03 15:12:00,
2013-06-03 10:22:00,58.0,47.0,30.10,East,88,2.0,7.0,66,0.00,,,0.01,,2013-06-03 15:22:00,
2013-06-03 10:33:00,58.0,47.0,30.09,East,79,3.0,6.0,68,0.00,,,0.01,,2013-06-03 15:33:00,
2013-06-03 10:43:00,58.0,47.0,30.09,East,79,3.0,6.0,68,0.00,,,0.01,,2013-06-03 15:43:00,
2013-06-03 10:53:00,59.0,48.0,30.09,ESE,106,4.0,7.0,67,0.00,,,0.01,,2013-06-03 15:53:00,
2013-06-03 11:03:00,59.0,48.0,30.08,East,82,3.0,9.0,68,0.00,,,0.01,,2013-06-03 16:03:00,
2013-06-03 11:13:00,59.0,48.0,30.08,East,82,3.0,9.0,68,0.00,,,0.01,,2013-06-03 16:13:00,
2013-06-03 11:23:00,59.0,48.0,30.08,ENE,65,6.0,9.0,68,0.00,,,0.01,,2013-06-03 16:23:00,
2013-06-03 11:33:00,59.0,50.0,30.08,ENE,76,5.0,9.0,71,0.00,,,0.01,,2013-06-03 16:33:00,
2013-06-03 11:42:00,60.0,50.0,30.08,East,90,4.0,9.0,69,0.00,,,0.01,,2013-06-03 16:42:00,
2013-06-03 11:53:00,60.0,50.0,30.08,East,90,4.0,9.0,69,0.00,,,0.01,,2013-06-03 16:53:00,
2013-06-03 12:02:00,60.0,48.0,30.08,ENE,70,2.0,7.0,64,0.00,,,0.01,,2013-06-03 17:02:00,
2013-06-03 12:12:00,60.0,48.0,30.08,ENE,70,2.0,7.0,64,0.00,,,0.01,,2013-06-03 17:12:00,
2013-06-03 12:22:00,61.0,48.0,30.08,ENE,73,3.0,10.0,63,0.00,,,0.01,,2013-06-03 17:22:00,
2013-06-03 12:33:00,61.0,49.0,30.07,ENE,65,2.0,9.0,65,0.00,,,0.01,,2013-06-03 17:33:00,
2013-06-03 12:42:00,61.0,49.0,30.07,ENE,65,2.0,9.0,65,0.00,,,0.01,,2013-06-03 17:42:00,
2013-06-03 12:52:00,61.0,49.0,30.07,ENE,76,5.0,10.0,65,0.00,,,0.01,,2013-06-03 17:52:00,
2013-06-03 13:02:00,61.0,50.0,30.07,ENE,59,6.0,9.0,67,0.00,,,0.01,,2013-06-03 18:02:00,
2013-06-03 13:12:00,61.0,50.0,30.07,ENE,59,6.0,9.0,67,0.00,,,0.01,,2013-06-03 18:12:00,
2013-06-03 13:22:00,62.0,47.0,30.06,ENE,77,5.0,9.0,59,0.00,,,0.01,,2013-06-03 18:22:00,
2013-06-03 13:32:00,62.0,50.0,30.06,ENE,57,3.0,12.0,65,0.00,,,0.00,,2013-06-03 18:32:00,
2013-06-03 13:42:00,62.0,50.0,30.06,ENE,57,3.0,12.0,65,0.00,,,0.00,,2013-06-03 18:42:00,
2013-06-03 13:52:00,63.0,51.0,30.05,SE,128,4.0,8.0,65,0.00,,,0.00,,2013-06-03 18:52:00,
2013-06-03 14:03:00,62.0,49.0,30.05,East,88,5.0,11.0,62,0.00,,,0.00,,2013-06-03 19:03:00,
2013-06-03 14:12:00,62.0,49.0,30.05,East,88,5.0,11.0,62,0.00,,,0.00,,2013-06-03 19:12:00,
2013-06-03 14:22:00,62.0,50.0,30.05,NE,51,3.0,7.0,65,0.00,,,0.00,,2013-06-03 19:22:00,
2013-06-03 14:32:00,62.0,50.0,30.04,East,88,4.0,9.0,64,0.00,,,0.00,,2013-06-03 19:32:00,
2013-06-03 14:42:00,62.0,50.0,30.04,East,88,4.0,9.0,64,0.00,,,0.00,,2013-06-03 19:42:00,
2013-06-03 14:52:00,63.0,48.0,30.04,ENE,66,3.0,8.0,57,0.00,,,0.00,,2013-06-03 19:52:00,
2013-06-03 15:02:00,63.0,49.0,30.04,East,92,5.0,8.0,61,0.00,,,0.00,,2013-06-03 20:02:00,
2013-06-03 15:12:00,63.0,49.0,30.04,East,92,5.0,8.0,61,0.00,,,0.00,,2013-06-03 20:12:00,
2013-06-03 15:22:00,64.0,49.0,30.04,ESE,121,3.0,7.0,59,0.00,,,0.00,,2013-06-03 20:22:00,
2013-06-03 15:32:00,64.0,48.0,30.03,NNE,30,2.0,7.0,57,0.00,,,0.00,,2013-06-03 20:32:00,
2013-06-03 15:42:00,64.0,48.0,30.03,NNE,30,2.0,7.0,57,0.00,,,0.00,,2013-06-03 20:42:00,
2013-06-03 15:52:00,64.0,50.0,30.03,NE,54,2.0,9.0,60,0.00,,,0.00,,2013-06-03 20:52:00,
2013-06-03 16:02:00,64.0,50.0,30.03,East,84,4.0,9.0,61,0.00,,,0.00,,2013-06-03 21:02:00,
2013-06-03 16:12:00,64.0,50.0,30.03,East,84,4.0,9.0,61,0.00,,,0.00,,2013-06-03 21:12:00,
2013-06-03 16:22:00,64.0,50.0,30.02,East,86,4.0,10.0,60,0.00,,,0.00,,2013-06-03 21:22:00,
2013-06-03 16:33:00,64.0,48.0,30.02,ENE,70,2.0,8.0,56,0.00,,,0.00,,2013-06-03 21:33:00,
2013-06-03 16:43:00,64.0,48.0,30.02,ENE,70,2.0,8.0,56,0.00,,,0.00,,2013-06-03 21:43:00,
2013-06-03 16:53:00,64.0,48.0,30.01,ENE,65,3.0,10.0,56,0.00,,,0.00,,2013-06-03 21:53:00,
2013-06-03 17:03:00,65.0,49.0,30.02,ENE,76,3.0,8.0,57,0.00,,,0.00,,2013-06-03 22:03:00,
2013-06-03 17:12:00,65.0,49.0,30.02,ENE,76,3.0,8.0,57,0.00,,,0.00,,2013-06-03 22:12:00,
2013-06-03 17:22:00,65.0,47.0,30.02,East,84,3.0,13.0,53,0.01,,,0.01,,2013-06-03 22:22:00,
2013-06-03 17:32:00,65.0,50.0,30.02,East,83,3.0,8.0,59,0.01,,,0.01,,2013-06-03 22:32:00,
2013-06-03 17:42:00,65.0,50.0,30.02,East,83,3.0,8.0,59,0.01,,,0.01,,2013-06-03 22:42:00,
2013-06-03 17:52:00,65.0,48.0,30.02,NNE,27,2.0,9.0,55,0.01,,,0.01,,2013-06-03 22:52:00,
2013-06-03 18:02:00,65.0,49.0,30.02,NE,55,5.0,8.0,57,0.01,,,0.01,,2013-06-03 23:02:00,
2013-06-03 18:12:00,65.0,49.0,30.02,NE,55,5.0,8.0,57,0.01,,,0.01,,2013-06-03 23:12:00,
2013-06-03 18:22:00,65.0,48.0,30.01,East,85,1.0,7.0,55,0.00,,,0.01,,2013-06-03 23:22:00,
2013-06-03 18:32:00,64.0,47.0,30.01,East,100,3.0,9.0,55,0.00,,,0.01,,2013-06-03 23:32:00,
2013-06-03 18:42:00,64.0,47.0,30.01,East,100,3.0,9.0,55,0.00,,,0.01,,2013-06-03 23:42:00,
2013-06-03 18:52:00,64.0,47.0,30.01,ESE,120,2.0,7.0,54,0.00,,,0.01,,2013-06-03 23:52:00,
2013-06-03 19:02:00,64.0,49.0,30.01,ENE,73,4.0,9.0,59,0.00,,,0.01,,2013-06-04 00:02:00,
2013-06-03 19:12:00,64.0,49.0,30.01,ENE,73,4.0,9.0,59,0.00,,,0.01,,2013-06-04 00:12:00,
2013-06-03 19:22:00,64.0,48.0,30.01,ENE,76,6.0,10.0,57,0.00,,,0.01,,2013-06-04 00:22:00,
2013-06-03 19:32:00,63.0,48.0,30.01,ENE,76,3.0,6.0,59,0.00,,,0.01,,2013-06-04 00:32:00,
2013-06-03 19:42:00,63.0,48.0,30.01,ENE,76,3.0,6.0,59,0.00,,,0.01,,2013-06-04 00:42:00,
2013-06-03 19:52:00,63.0,49.0,30.02,East,93,3.0,7.0,61,0.00,,,0.01,,2013-06-04 00:52:00,
2013-06-03 20:02:00,63.0,50.0,30.03,East,93,3.0,7.0,62,0.00,,,0.01,,2013-06-04 01:02:00,
2013-06-03 20:12:00,63.0,50.0,30.03,East,93,3.0,7.0,62,0.00,,,0.01,,2013-06-04 01:12:00,
2013-06-03 20:22:00,62.0,50.0,30.02,ENE,70,3.0,5.0,65,0.00,,,0.01,,2013-06-04 01:22:00,
2013-06-03 20:32:00,61.0,50.0,30.03,ENE,76,2.0,5.0,67,0.00,,,0.01,,2013-06-04 01:32:00,
2013-06-03 20:42:00,61.0,50.0,30.03,ENE,76,2.0,5.0,67,0.00,,,0.01,,2013-06-04 01:42:00,
2013-06-03 20:52:00,61.0,50.0,30.03,ENE,76,2.0,5.0,67,0.00,,,0.01,,2013-06-04 01:52:00,
2013-06-03 21:02:00,59.0,51.0,30.04,ENE,76,1.0,2.0,76,0.00,,,0.01,,2013-06-04 02:02:00,
2013-06-03 21:12:00,59.0,51.0,30.04,ENE,76,1.0,2.0,76,0.00,,,0.01,,2013-06-04 02:12:00,
2013-06-03 21:22:00,58.0,52.0,30.04,ENE,76,0.0,2.0,79,0.00,,,0.01,,2013-06-04 02:22:00,
2013-06-03 21:32:00,58.0,52.0,30.05,ENE,76,0.0,1.0,79,0.00,,,0.01,,2013-06-04 02:32:00,
2013-06-03 21:42:00,58.0,52.0,30.05,ENE,76,0.0,1.0,79,0.00,,,0.01,,2013-06-04 02:42:00,
2013-06-03 21:52:00,57.0,51.0,30.05,ENE,76,0.0,0.0,80,0.00,,,0.01,,2013-06-04 02:52:00,
2013-06-03 22:02:00,56.0,50.0,30.05,ENE,76,0.0,1.0,81,0.00,,,0.01,,2013-06-04 03:02:00,
2013-06-03 22:12:00,56.0,50.0,30.05,ENE,76,0.0,1.0,81,0.00,,,0.01,,2013-06-04 03:12:00,
2013-06-03 22:22:00,56.0,51.0,30.06,ENE,76,0.0,1.0,83,0.00,,,0.01,,2013-06-04 03:22:00,
2013-06-03 22:32:00,56.0,51.0,30.05,ENE,75,0.0,3.0,83,0.00,,,0.01,,2013-06-04 03:32:00,
2013-06-03 22:43:00,56.0,51.0,30.05,ENE,75,0.0,3.0,83,0.00,,,0.01,,2013-06-04 03:43:00,
2013-06-03 22:53:00,56.0,51.0,30.05,ENE,75,0.0,2.0,84,0.00,,,0.01,,2013-06-04 03:53:00,
2013-06-03 23:03:00,55.0,51.0,30.05,ENE,75,0.0,1.0,85,0.00,,,0.01,,2013-06-04 04:03:00,
2013-06-03 23:13:00,55.0,51.0,30.05,ENE,75,0.0,1.0,85,0.00,,,0.01,,2013-06-04 04:13:00,
2013-06-03 23:23:00,55.0,51.0,30.05,ENE,75,0.0,0.0,86,0.00,,,0.01,,2013-06-04 04:23:00,
2013-06-03 23:33:00,54.0,50.0,30.05,ENE,75,0.0,0.0,86,0.00,,,0.01,,2013-06-04 04:33:00,
2013-06-03 23:42:00,54.0,50.0,30.05,ENE,75,0.0,0.0,86,0.00,,,0.01,,2013-06-04 04:42:00,
2013-06-03 23:53:00,54.0,50.0,30.05,ENE,75,0.0,0.0,87,0.00,,,0.01,,2013-06-04 04:53:00,